This demonstration page uses our WeatherBlox Daily Observations layout. Learn more.

Left ArrowRight Arrow

40.17849, -122.23583

Hourly Observations for November 30, 2021

Temp ( °F °C ) Dew Point ( °F °C ) Humidity (%) Winds ( mph kmh ) Pressure ( in mb ) Visibility ( mi km ) Precip ( " mm )
12:54 am 00:54 Clear 51 10.6 40 4.4 66 66 NNW 9 15 30.12 1020 10 16 N/A
1:54 am 01:54 Clear 52 11.1 39 3.9 61 61 NNW 12 19 30.13 1020 10 16 N/A
2:54 am 02:54 Clear 47 8.3 38 3.3 71 71 N 6 9 30.12 1020 10 16 N/A
3:54 am 03:54 Clear 50 10 39 3.9 66 66 N 6 9 30.13 1020 10 16 N/A
4:54 am 04:54 Clear 45 7.2 38 3.3 77 77 N 5 7 30.15 1021 10 16 N/A
5:54 am 05:54 Clear 40 4.4 36 2.2 86 86 NNW 3 6 30.15 1021 10 16 N/A
6:54 am 06:54 Clear 40 4.4 36 2.2 86 86 NW 5 7 30.18 1022 10 16 N/A
7:54 am 07:54 Sunny 42 5.6 36 2.2 79 79 WNW 5 7 30.19 1022 10 16 N/A
8:54 am 08:54 Sunny 47 8.3 41 5 80 80 N N/A 30.19 1023 10 16 N/A
9:54 am 09:54 Sunny 55 12.8 47 8.3 74 74 WNW 3 6 30.21 1023 10 16 N/A
10:54 am 10:54 Sunny 62 16.7 49 9.4 62 62 N 5 7 30.18 1022 10 16 N/A
11:54 am 11:54 Sunny 68 20 42 5.6 39 39 VRB 5 7 30.15 1021 10 16 N/A
12:54 pm 12:54 Sunny 73 22.8 43 6.1 34 34 NNW 6 9 30.12 1020 10 16 N/A
1:54 pm 13:54 Sunny 76 24.4 42 5.6 30 30 N 6 9 30.10 1019 10 16 N/A
2:54 pm 14:54 Sunny 78 25.6 43 6.1 29 29 N 3 6 30.09 1019 10 16 N/A
3:54 pm 15:54 Sunny 74 23.3 48 8.9 40 40 N 3 6 30.08 1019 10 16 N/A
4:54 pm 16:54 Clear 69 20.6 40 4.4 35 35 NW 6 9 30.08 1019 10 16 N/A
5:54 pm 17:54 Clear 66 18.9 36 2.2 33 33 NW 9 15 30.09 1019 10 16 N/A
6:54 pm 18:54 Clear 66 18.9 33 0.6 29 29 NW 8 13 30.11 1020 10 16 N/A
7:54 pm 19:54 Clear 66 18.9 32 undefined 28 28 NNW 12 19 30.12 1020 10 16 N/A
8:54 pm 20:54 Clear 65 18.3 31 -0.6 28 28 NW 8 13 30.13 1020 10 16 N/A
9:54 pm 21:54 Clear 57 13.9 34 1.1 42 42 WNW 8 13 30.14 1021 10 16 N/A
10:54 pm 22:54 Clear 61 16.1 32 undefined 34 34 NW 9 15 30.14 1021 10 16 N/A
11:54 pm 23:54 Clear 63 17.2 32 undefined 31 31 NW 8 13 30.14 1021 10 16 N/A

Powered by AerisWeather